Retour au catalogue

FENGYUN 1C DEB

ActifSSO
NORAD 38137·DEBRIS·🇨🇳 China

Lancé May 10, 1999 depuis Taiyuan Satellite Launch Center

Loading…

Prochains Passages (prochaines 24 heures)

TLE

VieillissantSource: Space-Track

Époque: Sep 3, 2026, 22:40 UTC

1 38137U 99025EQJ 26246.94451423  .00000010  00000-0  31669-4 0  9999
2 38137  98.8336 288.6878 0046437  46.1068 314.3921 14.06382224674368

Suivez FENGYUN 1C DEB en temps réel avec AllMySat

Download on the App Store